Marion, SC

10:28 PM EDT on October 19, 2017 (GMT -0400)
Marion County

Weather History for KMAO - November, 2012

Change the Weather History Date:

Monday, November 5, 2012

  Actual Average (KFLO) Record (KFLO)
Temperature  
Mean Temperature 52 °F -  
Max Temperature 59 °F 68 °F 86 °F (1974)
Min Temperature 42 °F 46 °F 28 °F (1966)
Degree Days  
Heating Degree Days 14    
Growing Degree Days 2 (Base 50)    
Moisture  
Dew Point 42 °F    
Average Humidity 83    
Maximum Humidity 93    
Minimum Humidity 45    
Precipitation  
Precipitation 0.00 in - - ()
Sea Level Pressure  
Sea Level Pressure 30.04 in    
Wind  
Wind Speed 5 mph (NNE)    
Max Wind Speed 9 mph    
Max Gust Speed -    
Visibility 10 miles    
Events      
Averages and records for this station are not official NWS values.
T = Trace of Precipitation, MM = Missing Value Source: NWS Daily Summary

Daily Weather History Graph

Daily Weather History Graph

Search for Another Location

Airport or City:

Trip Planner

Search our weather history database for the weather conditions in past years. The results will help you decide how hot, cold, wet, or windy it might be!

Date:

Astronomy

Nov. 05, 2012 Rise Set
Actual Time 6:41 AM EST 5:20 PM EST
Civil Twilight 6:15 AM EST 5:46 PM EST
Nautical Twilight 5:45 AM EST 6:16 PM EST
Astronomical Twilight 5:15 AM EST 6:45 PM EST
Moon 10:55 PM EST (11/5) 11:59 AM EST (11/5)
Length of Visible Light 11h 31m
Length of Day
10h 39m
Waning Gibbous, 63% of the Moon is Illuminated
Nov 5
Waning Gibbous
Nov 6
Last Quarter
Nov 13
New
Nov 20
First Quarter
Nov 28
Full

Hourly Weather History & Observations

Time (EST) Temp. Windchill Dew Point Humidity Pressure Visibility Wind Dir Wind Speed Gust Speed Precip Events Conditions
12:15 AM 50.0 °F - 44.6 °F 82% 29.99 in 10.0 mi NE 6.9 mph - N/A   Overcast
12:35 AM 50.0 °F - 44.6 °F 82% 29.99 in 10.0 mi NNE 5.8 mph - N/A   Mostly Cloudy
12:55 AM 48.2 °F - 44.6 °F 87% 29.98 in 10.0 mi NNE 5.8 mph - N/A   Overcast
1:15 AM 48.2 °F - 44.6 °F 87% 29.99 in 10.0 mi NNE 5.8 mph - N/A   Overcast
1:55 AM 48.2 °F - 44.6 °F 87% 29.99 in 10.0 mi NE 4.6 mph - N/A   Overcast
2:15 AM 48.2 °F - 44.6 °F 87% 29.98 in 10.0 mi NNE 6.9 mph - N/A   Overcast
2:35 AM 46.4 °F 44.3 °F 42.8 °F 87% 29.98 in 10.0 mi NE 4.6 mph - N/A   Overcast
2:55 AM 46.4 °F 44.3 °F 42.8 °F 87% 29.98 in 10.0 mi NNE 4.6 mph - N/A   Overcast
3:15 AM 46.4 °F 44.3 °F 44.6 °F 93% 29.98 in 10.0 mi North 4.6 mph - N/A   Overcast
3:35 AM 46.4 °F 44.3 °F 42.8 °F 87% 29.99 in 10.0 mi North 4.6 mph - N/A   Overcast
3:55 AM 46.4 °F 44.3 °F 44.6 °F 93% 29.99 in 10.0 mi North 4.6 mph - N/A   Overcast
4:15 AM 46.4 °F 43.5 °F 44.6 °F 93% 30.00 in 10.0 mi North 5.8 mph - N/A   Overcast
4:35 AM 46.4 °F 42.9 °F 42.8 °F 87% 30.00 in 10.0 mi North 6.9 mph - N/A   Overcast
4:55 AM 46.4 °F 42.9 °F 42.8 °F 87% 30.02 in 10.0 mi North 6.9 mph - N/A   Overcast
5:15 AM 46.4 °F 42.9 °F 42.8 °F 87% 30.02 in 10.0 mi North 6.9 mph - N/A   Overcast
5:35 AM 46.4 °F 42.4 °F 42.8 °F 87% 30.02 in 10.0 mi North 8.1 mph - N/A   Overcast
5:55 AM 46.4 °F 42.9 °F 42.8 °F 87% 30.03 in 10.0 mi North 6.9 mph - N/A   Overcast
6:15 AM 46.4 °F 43.5 °F 42.8 °F 87% 30.03 in 10.0 mi North 5.8 mph - N/A   Overcast
6:35 AM 44.6 °F 40.7 °F 42.8 °F 93% 30.04 in 10.0 mi North 6.9 mph - N/A   Scattered Clouds
6:55 AM 44.6 °F 43.1 °F 41.0 °F 87% 30.05 in 10.0 mi North 3.5 mph - N/A   Clear
7:15 AM 44.6 °F 42.2 °F 42.8 °F 93% 30.05 in 10.0 mi North 4.6 mph - N/A   Clear
7:55 AM 46.4 °F 42.9 °F 42.8 °F 87% 30.07 in 10.0 mi NNE 6.9 mph - N/A   Mostly Cloudy
8:15 AM 46.4 °F 43.5 °F 42.8 °F 87% 30.07 in 10.0 mi NNE 5.8 mph - N/A   Mostly Cloudy
8:35 AM 48.2 °F - 41.0 °F 76% 30.07 in 10.0 mi NNE 9.2 mph - N/A   Scattered Clouds
8:55 AM 50.0 °F - 41.0 °F 71% 30.07 in 10.0 mi NE 9.2 mph - N/A   Clear
4:15 PM 59.0 °F - 37.4 °F 45% 30.02 in 10.0 mi North 4.6 mph - N/A   Clear
6:15 PM 46.4 °F - 42.8 °F 87% 30.04 in 10.0 mi Calm Calm - N/A   Clear
6:35 PM 46.4 °F - 41.0 °F 81% 30.05 in 10.0 mi Calm Calm - N/A   Clear
6:55 PM 46.4 °F - 42.8 °F 87% 30.05 in 10.0 mi Calm Calm - N/A   Clear
7:15 PM 44.6 °F - 41.0 °F 87% 30.06 in 10.0 mi Calm Calm - N/A   Clear
7:35 PM 44.6 °F - 41.0 °F 87% 30.06 in 10.0 mi Calm Calm - N/A   Clear
7:55 PM 44.6 °F 43.1 °F 41.0 °F 87% 30.07 in 10.0 mi ENE 3.5 mph - N/A   Clear
8:15 PM 44.6 °F 43.1 °F 41.0 °F 87% 30.07 in 10.0 mi ENE 3.5 mph - N/A   Clear
8:35 PM 44.6 °F 42.2 °F 39.2 °F 81% 30.08 in 10.0 mi ENE 4.6 mph - N/A   Clear
8:55 PM 44.6 °F 43.1 °F 39.2 °F 81% 30.08 in 10.0 mi ENE 3.5 mph - N/A   Clear
9:15 PM 46.4 °F 44.3 °F 39.2 °F 76% 30.09 in 10.0 mi ENE 4.6 mph - N/A   Clear
9:35 PM 44.6 °F 42.2 °F 39.2 °F 81% 30.09 in 10.0 mi ENE 4.6 mph - N/A   Clear
9:55 PM 44.6 °F 42.2 °F 37.4 °F 76% 30.09 in 10.0 mi ENE 4.6 mph - N/A   Clear
10:15 PM 46.4 °F 42.9 °F 37.4 °F 71% 30.08 in 10.0 mi ENE 6.9 mph - N/A   Clear
10:35 PM 44.6 °F 41.4 °F 37.4 °F 76% 30.08 in 10.0 mi ENE 5.8 mph - N/A   Clear
10:55 PM 46.4 °F 44.3 °F 37.4 °F 71% 30.08 in 10.0 mi ENE 4.6 mph - N/A   Clear
11:15 PM 44.6 °F 42.2 °F 37.4 °F 76% 30.08 in 10.0 mi NE 4.6 mph - N/A   Clear
11:35 PM 44.6 °F 41.4 °F 37.4 °F 76% 30.07 in 10.0 mi ENE 5.8 mph - N/A   Clear
11:55 PM 42.8 °F 40.1 °F 37.4 °F 81% 30.07 in 10.0 mi NE 4.6 mph - N/A   Clear